Regional Weather Roundup
Issued by NWS Austin/San Antonio, TX

Current Version | Previous Version | Text Only | Print | Product List | Glossary On
Versions: 1 2 3 4 5 6 7 8 9 10 11 12 13 14 15 16 17 18 19 20 21 22 23 24 25 26 27 28 29 30 31 32 33 34 35 36 37 38 39 40 41 42 43 44 45 46 47 48 49 50
000
ASUS44 KEWX 291813
RWREWX
SOUTH TEXAS REGIONAL WEATHER ROUNDUP
NATIONAL WEATHER SERVICE AUSTIN/SAN ANTONIO TX
100 PM CDT THU SEP 29 2022

NOTE: "FAIR" INDICATED FEW OR NO CLOUDS BELOW 12,000 FEET WITH NO
SIGNIFICANT WEATHER AND/OR OBSTRUCTIONS TO VISIBILITY.

* - THESE STATIONS ARE NOT NWS OR FAA STATIONS...AND ARE NOT SUBJECT
    TO NWS AND FAA QUALITY CONTROL.

TXZ171-172-183>190-291900-
TEXAS HILL COUNTRY AND EDWARDS PLATEAU

CITY           SKY/WX    TMP DP  RH WIND       PRES   REMARKS
JUNCTION       SUNNY     86  46  24 W6        30.24F
6HR MIN TEMP:  53; 6HR MAX TEMP:  88;

*LLANO         SUNNY     86  45  23 VRB5      30.20F
BURNET         SUNNY     85  45  24 W5        30.23F
6HR MIN TEMP:  59; 6HR MAX TEMP:  86;

*HORSESHOE BAY SUNNY     87  47  25 N5        30.21F
6HR MIN TEMP:  55; 6HR MAX TEMP:  87;

*LAGO VISTA      N/A     90  48  23 NW3       30.22F
6HR MIN TEMP:  66; 6HR MAX TEMP:  90;

*KERRVILLE     SUNNY     87  45  23 SW7       30.23F
6HR MIN TEMP:  53; 6HR MAX TEMP:  87;

*FREDERICKSBRG SUNNY     84  43  23 SE3       30.23F
6HR MIN TEMP:  54; 6HR MAX TEMP:  84;

*ROCKSPRINGS   SUNNY     81  43  26 W6        30.31F
*BOERNE        SUNNY     84  43  23 SE3       30.21F
HONDO          SUNNY     87  49  26 W6        30.21F
6HR MIN TEMP:  56; 6HR MAX TEMP:  88;

*UVALDE        SUNNY     84  53  34 W6        30.24F
6HR MIN TEMP:  55; 6HR MAX TEMP:  84;

DEL RIO        SUNNY     84  53  34 S9        30.21F
6HR MIN TEMP:  62; 6HR MAX TEMP:  84;

*LAUGHLIN AFB  SUNNY     82  50  32 S8        30.20F
6HR MIN TEMP:  57; 6HR MAX TEMP:  82;

*SPOFFORD      SUNNY     84  50  30 E8        30.21F
6HR MIN TEMP:  55; 6HR MAX TEMP:  84;

CARRIZO SPRGS  SUNNY     86  52  30 CALM      30.20F
*FAITH RANCH   SUNNY     86  48  26 VRB7G13   30.23F
$$

TXZ173-191>194-202-209-217>225-228-291900-
CENTRAL AND SOUTH CENTRAL TEXAS

CITY           SKY/WX    TMP DP  RH WIND       PRES   REMARKS
GEORGETOWN     SUNNY     84  49  29 CALM      30.21F
6HR MIN TEMP:  59; 6HR MAX TEMP:  85;

*TAYLOR        SUNNY     84  50  30 S8        30.19F
6HR MIN TEMP:  53; 6HR MAX TEMP:  85;

AUSTIN/BERGSTM SUNNY     86  51  29 VRB3      30.18F
6HR MIN TEMP:  52; 6HR MAX TEMP:  87;

AUSTIN/MABRY   SUNNY     87  49  26 CALM      30.20F
6HR MIN TEMP:  62; 6HR MAX TEMP:  88;

*PFLUGERVILLE  SUNNY     86  46  25 NE6       30.19F
SAN MARCOS     SUNNY     86  49  28 CALM      30.23S
NEW BRAUNFELS  SUNNY    109  50  14 VRB5      30.18F HX 106
6HR MIN TEMP:  66; 6HR MAX TEMP: 112;

*RANDOLPH AFB  SUNNY     87  43  21 S5        30.16F
6HR MIN TEMP:  59; 6HR MAX TEMP:  88;

*SEGUIN        SUNNY     85  46  24 CALM      30.16F
6HR MIN TEMP:  58; 6HR MAX TEMP:  86;

SAN ANTONIO    SUNNY     87  46  24 VRB6      30.20F
6HR MIN TEMP:  60; 6HR MAX TEMP:  87;

STINSON FIELD  SUNNY     89  48  24 CALM      30.17F
6HR MIN TEMP:  58; 6HR MAX TEMP:  89;

*KELLY FIELD   SUNNY     88  49  26 S6        30.17F
6HR MIN TEMP:  59; 6HR MAX TEMP:  88;

*PLEASANTON    SUNNY     88  48  25 NE5       30.20F
*KENEDY        SUNNY     86  53  32 NE5       30.20F
6HR MIN TEMP:  56; 6HR MAX TEMP:  87;

*LA GRANGE     NOT AVBL
*GIDDINGS      SUNNY     83  46  27 CALM      30.21F
6HR MIN TEMP:  58; 6HR MAX TEMP:  83;

*GONZALES      SUNNY     87  51  29 CALM      30.18F
6HR MIN TEMP:  59; 6HR MAX TEMP:  87;

$$

TXZ163>164-176>182-195>201-210>213-226-227-235-291900-
SOUTHEAST TEXAS

CITY           SKY/WX    TMP DP  RH WIND       PRES   REMARKS
COLLEGE STN    SUNNY     81  48  31 E5        30.19F
6HR MIN TEMP:  63; 6HR MAX TEMP:  81;

*BRYAN         SUNNY     80  47  31 SE3       30.22F
6HR MIN TEMP:  57; 6HR MAX TEMP:  80;

*CALDWELL      SUNNY     79  47  32 SE8       30.21F
6HR MIN TEMP:  62; 6HR MAX TEMP:  80;

*CROCKETT      SUNNY     77  37  24 CALM      30.21F
*BRENHAM       SUNNY     81  44  27 E3          N/A
6HR MIN TEMP:  60; 6HR MAX TEMP:  81;

HUNTSVILLE     SUNNY     80  46  30 VRB5      30.21F
6HR MIN TEMP:  56; 6HR MAX TEMP:  80;

CONROE         SUNNY     78  44  29 VRB7      30.21F
6HR MIN TEMP:  58; 6HR MAX TEMP:  78;

HOUSTON BUSH   SUNNY     80  43  26 NE8       30.19F
6HR MIN TEMP:  62; 6HR MAX TEMP:  80;

HOUSTON HOBBY  SUNNY     81  39  22 N8        30.18F
6HR MIN TEMP:  68; 6HR MAX TEMP:  82;

*HOUSTON SW AP NOT AVBL
PEARLAND       SUNNY     80  39  23 N8G17     30.19F
6HR MIN TEMP:  69; 6HR MAX TEMP:  80;

HOUSTON HOOKS  SUNNY     79  45  29 N3        30.20F
6HR MIN TEMP:  62; 6HR MAX TEMP:  80;

ELLINGTON FLD  SUNNY     77  37  24 N9        30.18F
SUGAR LAND     SUNNY     82  46  28 NE7       30.19F
6HR MIN TEMP:  60; 6HR MAX TEMP:  82;

*HOUSTON EXEC  SUNNY     79  46  31 NE7       30.21F
*CLEVELAND MUN NOT AVBL
*WHARTON       SUNNY     82  46  29 NE6       30.20F
*COLUMBUS      FAIR      81  47  30 NE3       30.21F
6HR MIN TEMP:  60; 6HR MAX TEMP:  82;

*EAGLE LAKE    SUNNY     82  47  29 E6        30.19F
6HR MIN TEMP:  60; 6HR MAX TEMP:  82;

$$

TXZ214>216-236>238-291900-
THE UPPER TEXAS COAST

CITY           SKY/WX    TMP DP  RH WIND       PRES   REMARKS
*ORANGE        SUNNY     78  39  24 N8        30.19F
6HR MIN TEMP:  60; 6HR MAX TEMP:  78;

PORT ARTHUR    SUNNY     78  45  30 N12G23    30.16F
6HR MIN TEMP:  61; 6HR MAX TEMP:  78;

GALVESTON      SUNNY     77  47  34 N14       30.19F
6HR MIN TEMP:  69; 6HR MAX TEMP:  78;

ANGLETON       SUNNY     81  46  29 NE8G17    30.18F
6HR MIN TEMP:  56; 6HR MAX TEMP:  81;

*BAY CITY      SUNNY     79  53  39 NE8       30.19F
PALACIOS       SUNNY     84  52  33 NE9       30.17F
6HR MIN TEMP:  60; 6HR MAX TEMP:  84;

$$

TXZ229>234-239>247-291900-
TEXAS COASTAL BEND AND RIO GRANDE PLAINS

CITY           SKY/WX    TMP DP  RH WIND       PRES   REMARKS
VICTORIA       SUNNY     87  52  29 VRB7      30.18F
6HR MIN TEMP:  58; 6HR MAX TEMP:  87;

*BEEVILLE      SUNNY     84  50  31 N6        30.19F
6HR MIN TEMP:  62; 6HR MAX TEMP:  85;

ROCKPORT       SUNNY     87  58  37 NW7       30.17F
6HR MIN TEMP:  67; 6HR MAX TEMP:  88;

*PORT ARANSAS  SUNNY    N/A N/A N/A N13       30.19F
*PORT LAVACA   SUNNY     85  51  30 NE7       30.18F
6HR MIN TEMP:  63; 6HR MAX TEMP:  86;

*INGLESIDE     SUNNY     85  59  41 NE8       30.16F
CORPUS CHRISTI MOSUNNY   88  61  40 N6G16     30.17F
6HR MIN TEMP:  64; 6HR MAX TEMP:  89;

CORPUS NAS     MOSUNNY   87  61  41 NE10      30.17F
6HR MIN TEMP:  73; 6HR MAX TEMP:  87;

*ROBSTOWN      SUNNY     85  56  36 MISG      30.18F
6HR MIN TEMP:  61; 6HR MAX TEMP:  87;

ALICE          SUNNY     87  59  38 MISG      30.17F
6HR MIN TEMP:  61; 6HR MAX TEMP:  87;

KINGSVILLE NAS MOSUNNY   87  58  37 NE9       30.17F
6HR MIN TEMP:  61; 6HR MAX TEMP:  87;

COTULLA        SUNNY     89  56  32 NW6       30.20F
6HR MIN TEMP:  60; 6HR MAX TEMP:  89;

LAREDO         SUNNY     86  58  38 VRB3      30.20F
6HR MIN TEMP:  65; 6HR MAX TEMP:  86;

$$

TXZ248>255-291900-
DEEP SOUTH TEXAS

CITY           SKY/WX    TMP DP  RH WIND       PRES   REMARKS
BROWNSVILLE    PTSUNNY   86  65  49 N14G21    30.14F
6HR MIN T


USA.gov is the U.S. government's official web portal to all federal, state and local government web resources and services.